Location: Saint-Jean-des-Mauvrets
(47.4000°N, 0.4500°W)
Time: 02:54:40
(UTC+01:00)

ISS - Visible Passes

Search period start: 19 November 2025 00:00
Search period end: 29 November 2025 00:00
Orbit: 414 x 420 km, 51.6° (Epoch: 18 November)

Date Brightness Start Highest point End Pass type
(mag) Time Alt. Az. Time Alt. Az. Time Alt. Az.
19 Nov -3.8 18:11:22 10° WSW 18:14:42 82° NNW 18:17:34 14° ENE visible
19 Nov -1.8 19:48:35 10° WNW 19:50:28 27° NW 19:50:28 27° NW visible
20 Nov -3.0 19:00:12 10° W 19:03:25 42° N 19:04:07 36° NNE visible
21 Nov -3.2 18:11:47 10° W 18:15:03 49° NNW 18:17:45 14° ENE visible
21 Nov -1.6 19:49:02 10° WNW 19:50:39 24° NW 19:50:39 24° NW visible
22 Nov -3.0 19:00:38 10° WNW 19:03:48 38° N 19:04:15 36° NNE visible
23 Nov -3.0 18:12:11 10° WNW 18:15:22 39° N 18:17:51 15° ENE visible
23 Nov -1.6 19:49:13 10° WNW 19:50:46 24° NW 19:50:46 24° NW visible
24 Nov -3.3 19:00:51 10° WNW 19:04:05 44° N 19:04:22 42° NNE visible
25 Nov -3.1 18:12:24 10° WNW 18:15:36 39° N 18:17:59 16° ENE visible
25 Nov -1.7 19:49:14 10° WNW 19:50:54 27° WNW 19:50:54 27° WNW visible
26 Nov -3.8 19:00:49 10° WNW 19:04:10 66° NNE 19:04:34 58° ENE visible
27 Nov -3.5 18:12:23 10° WNW 18:15:40 51° NNE 18:18:19 14° E visible
27 Nov -1.8 19:49:12 10° WNW 19:51:15 29° W 19:51:15 29° W visible
28 Nov -3.5 19:00:40 10° WNW 19:03:59 64° SSW 19:05:06 37° SE visible
